UAL532 KIAH-KBOS

Flight info

Callsign UAL532
Flight time 3h 30m
Altitude 37000
Route LURIC8 ORRTH CRAMM Q32 SWAPP Q34 RBV Q419 JFK ROBUC3
Aircraft A319/M-SDE3FGHIRWY/LB1

Departure

Time 2026-05-05 08:59
Airport George Bush Intercontinental Airport (KIAH)

Arrival

Time 2026-05-05 12:29
Airport Boston Logan International Airport (KBOS)
Time Latitude Longitude Altitude Speed Heading
2026-05-05 08:29 29.98497 -95.33804 107 ft 0 kts 292°
2026-05-05 08:30 29.98496 -95.33802 107 ft 0 kts 292°
2026-05-05 08:47 29.98496 -95.33801 107 ft 2 kts 292°
2026-05-05 08:48 29.98485 -95.33774 107 ft 4 kts 304°
2026-05-05 08:48 29.98467 -95.33752 106 ft 4 kts 333°
2026-05-05 08:48 29.98449 -95.33742 106 ft 4 kts 324°
2026-05-05 08:48 29.98433 -95.33721 106 ft 4 kts 276°
2026-05-05 08:49 29.98438 -95.33697 106 ft 4 kts 212°
2026-05-05 08:49 29.98461 -95.33692 106 ft 3 kts 180°
2026-05-05 08:49 29.98465 -95.33692 106 ft 0 kts 180°
2026-05-05 08:52 29.98461 -95.33692 106 ft 1 kts 180°
2026-05-05 08:52 29.98440 -95.33692 106 ft 8 kts 180°
2026-05-05 08:52 29.98352 -95.33694 107 ft 13 kts 181°
2026-05-05 08:52 29.98317 -95.33778 107 ft 14 kts 271°
2026-05-05 08:53 29.98317 -95.33902 107 ft 16 kts 269°
2026-05-05 08:53 29.98339 -95.34028 107 ft 17 kts 298°
2026-05-05 08:53 29.98377 -95.34160 107 ft 18 kts 269°
2026-05-05 08:53 29.98376 -95.34310 107 ft 19 kts 270°
2026-05-05 08:54 29.98377 -95.34471 107 ft 21 kts 271°
2026-05-05 08:54 29.98379 -95.34641 107 ft 22 kts 270°
2026-05-05 08:54 29.98378 -95.34821 107 ft 23 kts 270°
2026-05-05 08:54 29.98380 -95.35011 107 ft 24 kts 271°
2026-05-05 08:55 29.98384 -95.35181 105 ft 13 kts 284°
2026-05-05 08:55 29.98458 -95.35248 107 ft 14 kts 333°
2026-05-05 08:55 29.98548 -95.35303 107 ft 15 kts 332°
2026-05-05 08:55 29.98645 -95.35363 107 ft 16 kts 331°
2026-05-05 08:56 29.98748 -95.35427 107 ft 17 kts 333°
2026-05-05 08:56 29.98855 -95.35492 106 ft 14 kts 330°
2026-05-05 08:56 29.98870 -95.35587 106 ft 14 kts 238°
2026-05-05 08:56 29.98822 -95.35692 107 ft 15 kts 244°
2026-05-05 08:57 29.98771 -95.35801 107 ft 16 kts 242°
2026-05-05 08:57 29.98763 -95.35915 107 ft 17 kts 321°
2026-05-05 08:57 29.98838 -95.35989 107 ft 12 kts 270°
2026-05-05 08:57 29.98797 -95.36078 107 ft 13 kts 241°
2026-05-05 08:58 29.98735 -95.36120 108 ft 11 kts 148°
2026-05-05 08:58 29.98661 -95.36068 108 ft 17 kts 152°
2026-05-05 08:58 29.98397 -95.35907 107 ft 70 kts 152°
2026-05-05 08:58 29.97807 -95.35547 106 ft 121 kts 152°
2026-05-05 08:59 29.96916 -95.35015 161 ft 161 kts 154°
2026-05-05 08:59 29.95932 -95.34454 818 ft 157 kts 156°
2026-05-05 08:59 29.94951 -95.33897 1398 ft 161 kts 156°
2026-05-05 08:59 29.94194 -95.32972 2122 ft 168 kts 126°
2026-05-05 09:00 29.93972 -95.31522 2372 ft 206 kts 92°
2026-05-05 09:00 29.94473 -95.29868 2654 ft 236 kts 61°
2026-05-05 09:00 29.95789 -95.28591 2839 ft 265 kts 19°
2026-05-05 09:00 29.97654 -95.28091 3209 ft 286 kts
2026-05-05 09:01 29.99650 -95.27714 3976 ft 293 kts
2026-05-05 09:01 30.01674 -95.27354 4884 ft 295 kts
2026-05-05 09:01 30.03678 -95.26999 5723 ft 296 kts
2026-05-05 09:01 30.05714 -95.26629 6540 ft 296 kts
2026-05-05 09:02 30.07738 -95.26153 7309 ft 299 kts 14°
2026-05-05 09:02 30.09658 -95.25206 8108 ft 303 kts 26°
2026-05-05 09:02 30.11418 -95.23854 8904 ft 305 kts 31°
2026-05-05 09:02 30.13157 -95.22452 9705 ft 305 kts 31°
2026-05-05 09:03 30.14902 -95.21047 10416 ft 306 kts 30°
2026-05-05 09:03 30.16702 -95.19608 10710 ft 326 kts 30°
2026-05-05 09:03 30.18632 -95.18077 10838 ft 348 kts 30°
2026-05-05 09:03 30.20653 -95.16477 11038 ft 364 kts 31°
2026-05-05 09:04 30.22761 -95.14796 11523 ft 371 kts 31°
2026-05-05 09:04 30.24889 -95.13086 12094 ft 374 kts 31°
2026-05-05 09:04 30.27034 -95.11357 12679 ft 377 kts 31°
2026-05-05 09:04 30.29194 -95.09613 13262 ft 380 kts 31°
2026-05-05 09:05 30.31377 -95.07854 13808 ft 385 kts 30°
2026-05-05 09:05 30.33588 -95.06081 14301 ft 388 kts 30°
2026-05-05 09:05 30.35814 -95.04297 14806 ft 391 kts 30°
2026-05-05 09:05 30.38058 -95.02495 15309 ft 394 kts 29°
2026-05-05 09:06 30.40286 -95.00702 15819 ft 397 kts 29°
2026-05-05 09:06 30.42575 -94.98891 16322 ft 399 kts 28°
2026-05-05 09:06 30.44897 -94.97106 16837 ft 402 kts 27°
2026-05-05 09:06 30.47247 -94.95329 17347 ft 405 kts 26°
2026-05-05 09:07 30.49614 -94.93544 17874 ft 408 kts 26°
2026-05-05 09:07 30.51997 -94.91741 18359 ft 411 kts 26°
2026-05-05 09:07 30.54396 -94.89916 18789 ft 414 kts 26°
2026-05-05 09:07 30.56811 -94.88068 19243 ft 417 kts 26°
2026-05-05 09:08 30.59208 -94.86230 19693 ft 420 kts 26°
2026-05-05 09:08 30.61649 -94.84353 20146 ft 423 kts 25°
2026-05-05 09:08 30.64111 -94.82459 20568 ft 426 kts 25°
2026-05-05 09:08 30.66591 -94.80551 20980 ft 429 kts 25°
2026-05-05 09:09 30.69088 -94.78629 21390 ft 432 kts 25°
2026-05-05 09:09 30.71602 -94.76694 21790 ft 435 kts 25°
2026-05-05 09:09 30.74131 -94.74742 22171 ft 438 kts 25°
2026-05-05 09:09 30.76676 -94.72777 22550 ft 441 kts 25°
2026-05-05 09:10 30.79241 -94.70802 22921 ft 443 kts 24°
2026-05-05 09:10 30.81787 -94.68844 23294 ft 446 kts 24°
2026-05-05 09:10 30.84380 -94.66847 23624 ft 449 kts 24°
2026-05-05 09:10 30.86991 -94.64827 23934 ft 451 kts 24°
2026-05-05 09:11 30.89611 -94.62796 24241 ft 454 kts 25°
2026-05-05 09:11 30.92249 -94.60748 24541 ft 457 kts 25°
2026-05-05 09:11 30.94897 -94.58691 24846 ft 459 kts 25°
2026-05-05 09:11 30.97559 -94.56624 25150 ft 461 kts 25°
2026-05-05 09:12 31.00232 -94.54547 25447 ft 463 kts 25°
2026-05-05 09:12 31.02918 -94.52461 25749 ft 464 kts 25°
2026-05-05 09:12 31.05577 -94.50399 26041 ft 466 kts 25°
2026-05-05 09:12 31.08282 -94.48304 26338 ft 468 kts 25°
2026-05-05 09:13 31.10999 -94.46197 26634 ft 470 kts 25°
2026-05-05 09:13 31.13724 -94.44081 26925 ft 471 kts 25°
2026-05-05 09:13 31.16456 -94.41958 27217 ft 473 kts 25°
2026-05-05 09:13 31.19205 -94.39825 27521 ft 475 kts 25°
2026-05-05 09:14 31.21960 -94.37686 27788 ft 477 kts 25°
2026-05-05 09:14 31.24724 -94.35529 28060 ft 479 kts 25°
2026-05-05 09:14 31.27494 -94.33359 28319 ft 480 kts 25°
2026-05-05 09:14 31.30240 -94.31207 28597 ft 482 kts 25°
2026-05-05 09:15 31.33023 -94.29024 28870 ft 483 kts 25°
2026-05-05 09:15 31.35818 -94.26835 29129 ft 484 kts 24°
2026-05-05 09:15 31.38624 -94.24639 29406 ft 485 kts 24°
2026-05-05 09:15 31.41423 -94.22443 29781 ft 484 kts 24°
2026-05-05 09:16 31.44214 -94.20251 30138 ft 483 kts 24°
2026-05-05 09:16 31.47001 -94.18061 30513 ft 481 kts 24°
2026-05-05 09:16 31.49769 -94.15883 30890 ft 478 kts 23°
2026-05-05 09:16 31.52526 -94.13714 31246 ft 477 kts 23°
2026-05-05 09:17 31.55238 -94.11582 31570 ft 475 kts 23°
2026-05-05 09:17 31.57978 -94.09427 31903 ft 474 kts 23°
2026-05-05 09:17 31.60717 -94.07271 32250 ft 473 kts 22°
2026-05-05 09:17 31.63447 -94.05122 32594 ft 472 kts 22°
2026-05-05 09:18 31.66169 -94.02982 32936 ft 471 kts 22°
2026-05-05 09:18 31.68886 -94.00844 33272 ft 470 kts 22°
2026-05-05 09:18 31.71594 -93.98710 33626 ft 469 kts 22°
2026-05-05 09:18 31.74262 -93.96604 33999 ft 468 kts 22°
2026-05-05 09:19 31.76920 -93.94367 34285 ft 476 kts 28°
2026-05-05 09:19 31.79350 -93.91642 34567 ft 491 kts 37°
2026-05-05 09:19 31.81500 -93.88472 34835 ft 498 kts 41°
2026-05-05 09:19 31.83605 -93.85246 35113 ft 497 kts 41°
2026-05-05 09:20 31.85711 -93.82030 35390 ft 496 kts 41°
2026-05-05 09:20 31.87815 -93.78825 35704 ft 494 kts 41°
2026-05-05 09:20 31.89914 -93.75629 36021 ft 492 kts 41°
2026-05-05 09:20 31.92006 -93.72449 36301 ft 491 kts 40°
2026-05-05 09:21 31.94067 -93.69312 36554 ft 491 kts 40°
2026-05-05 09:21 31.96151 -93.66136 36795 ft 490 kts 40°
2026-05-05 09:21 31.98232 -93.62955 36877 ft 490 kts 40°
2026-05-05 09:22 32.02385 -93.56593 36885 ft 489 kts 41°
2026-05-05 09:22 32.06540 -93.50220 36891 ft 491 kts 40°
2026-05-05 09:23 32.10701 -93.43830 36889 ft 491 kts 40°
2026-05-05 09:23 32.14836 -93.37476 36890 ft 492 kts 40°
2026-05-05 09:24 32.18993 -93.31077 36902 ft 492 kts 40°
2026-05-05 09:24 32.23151 -93.24656 36901 ft 492 kts 41°
2026-05-05 09:25 32.27296 -93.18226 36905 ft 492 kts 41°
2026-05-05 09:25 32.31405 -93.11868 36904 ft 487 kts 40°
2026-05-05 09:26 32.35505 -93.05564 36887 ft 479 kts 40°
2026-05-05 09:26 32.39525 -92.99355 36901 ft 472 kts 40°
2026-05-05 09:27 32.42807 -92.94248 36905 ft 466 kts 39°
2026-05-05 09:27 32.47314 -92.87211 36908 ft 457 kts 39°
2026-05-05 09:28 32.51121 -92.81261 36900 ft 449 kts 39°
2026-05-05 09:28 32.54856 -92.75411 36897 ft 441 kts 39°
2026-05-05 09:29 32.58435 -92.69541 36901 ft 438 kts 42°
2026-05-05 09:29 32.61774 -92.63587 36891 ft 434 kts 42°
2026-05-05 09:30 32.65052 -92.57660 36899 ft 425 kts 41°
2026-05-05 09:30 32.67754 -92.52850 36902 ft 417 kts 41°
2026-05-05 09:31 32.71497 -92.46262 36902 ft 406 kts 40°
2026-05-05 09:31 32.74581 -92.40813 36907 ft 395 kts 40°
2026-05-05 09:32 32.77111 -92.36343 36847 ft 384 kts 39°
2026-05-05 09:32 32.78629 -92.33729 36612 ft 384 kts 38°
2026-05-05 09:32 32.80160 -92.31168 36328 ft 386 kts 38°
2026-05-05 09:32 32.81741 -92.28595 36158 ft 384 kts 37°
2026-05-05 09:33 32.83852 -92.25234 36137 ft 374 kts 36°
2026-05-05 09:33 32.86995 -92.20405 35777 ft 372 kts 34°
2026-05-05 09:33 32.88096 -92.18783 35628 ft 374 kts 33°
2026-05-05 09:34 32.89755 -92.16401 35421 ft 373 kts 32°
2026-05-05 09:34 32.93053 -92.11821 35322 ft 361 kts 31°
2026-05-05 09:34 32.94718 -92.09588 35137 ft 360 kts 30°
2026-05-05 09:35 32.96414 -92.07386 34889 ft 361 kts 29°
2026-05-05 09:35 33.00426 -92.02420 34642 ft 352 kts 27°
2026-05-05 09:35 33.01593 -92.01020 34580 ft 355 kts 28°
2026-05-05 09:36 33.03925 -91.98218 34462 ft 363 kts 29°
2026-05-05 09:36 33.05118 -91.96767 34530 ft 363 kts 30°
2026-05-05 09:36 33.06831 -91.94637 34774 ft 359 kts 30°
2026-05-05 09:36 33.08527 -91.92469 34963 ft 357 kts 31°
2026-05-05 09:37 33.11921 -91.88014 34913 ft 369 kts 33°
2026-05-05 09:37 33.15305 -91.83402 35287 ft 367 kts 34°
2026-05-05 09:38 33.16953 -91.81066 35396 ft 369 kts 34°
2026-05-05 09:38 33.18603 -91.78689 35351 ft 375 kts 35°
2026-05-05 09:38 33.21885 -91.73833 35504 ft 378 kts 36°
2026-05-05 09:39 33.23497 -91.71357 35711 ft 376 kts 37°
2026-05-05 09:39 33.25078 -91.68869 35787 ft 378 kts 38°
2026-05-05 09:39 33.27069 -91.65327 35703 ft 402 kts 50°
2026-05-05 09:39 33.27897 -91.63260 35717 ft 413 kts 55°
2026-05-05 09:40 33.28985 -91.59964 35260 ft 438 kts 57°
2026-05-05 09:40 33.30090 -91.56548 35226 ft 444 kts 56°
2026-05-05 09:40 33.32368 -91.49611 35237 ft 458 kts 56°
2026-05-05 09:41 33.34771 -91.42424 35230 ft 472 kts 56°
2026-05-05 09:41 33.37281 -91.35045 35237 ft 486 kts 56°
2026-05-05 09:42 33.39902 -91.27458 35241 ft 500 kts 56°
2026-05-05 09:42 33.42612 -91.19729 35245 ft 514 kts 56°
2026-05-05 09:43 33.45777 -91.12094 35239 ft 507 kts 47°
2026-05-05 09:43 33.49580 -91.05067 35243 ft 500 kts 43°
2026-05-05 09:44 33.53544 -90.98228 35234 ft 500 kts 43°
2026-05-05 09:44 33.57403 -90.91331 35242 ft 503 kts 44°
2026-05-05 09:45 33.61201 -90.84274 35237 ft 504 kts 45°
2026-05-05 09:45 33.64982 -90.77198 35243 ft 504 kts 45°
2026-05-05 09:46 33.68772 -90.70145 35266 ft 502 kts 44°
2026-05-05 09:46 33.72546 -90.63156 35237 ft 502 kts 44°
2026-05-05 09:47 33.76345 -90.56113 35217 ft 502 kts 44°
2026-05-05 09:47 33.80132 -90.49057 35219 ft 502 kts 44°
2026-05-05 09:48 33.83915 -90.41985 35228 ft 503 kts 44°
2026-05-05 09:48 33.87691 -90.34917 35229 ft 501 kts 44°
2026-05-05 09:49 33.91426 -90.27925 35239 ft 499 kts 44°
2026-05-05 09:49 33.95178 -90.20885 35238 ft 499 kts 44°
2026-05-05 09:50 33.98925 -90.13838 35243 ft 499 kts 44°
2026-05-05 09:50 34.02667 -90.06791 35239 ft 499 kts 44°
2026-05-05 09:51 34.06382 -89.99777 35245 ft 500 kts 44°
2026-05-05 09:51 34.08249 -89.96241 35483 ft 498 kts 44°
2026-05-05 09:51 34.10100 -89.92721 35784 ft 497 kts 44°
2026-05-05 09:52 34.11949 -89.89204 36050 ft 496 kts 43°
2026-05-05 09:52 34.13800 -89.85693 36309 ft 495 kts 43°
2026-05-05 09:52 34.15649 -89.82189 36555 ft 495 kts 43°
2026-05-05 09:52 34.17497 -89.78679 36785 ft 495 kts 43°
2026-05-05 09:53 34.19319 -89.75219 36904 ft 495 kts 43°
2026-05-05 09:53 34.21169 -89.71703 36917 ft 495 kts 43°
2026-05-05 09:53 34.24858 -89.64682 36939 ft 495 kts 43°
2026-05-05 09:54 34.28539 -89.57657 36945 ft 495 kts 43°
2026-05-05 09:54 34.32212 -89.50613 36942 ft 495 kts 43°
2026-05-05 09:55 34.35862 -89.43615 36945 ft 495 kts 43°
2026-05-05 09:55 34.39534 -89.36567 36940 ft 495 kts 43°
2026-05-05 09:56 34.43202 -89.29504 36934 ft 495 kts 43°
2026-05-05 09:56 34.46862 -89.22428 36957 ft 495 kts 43°
2026-05-05 09:57 34.50500 -89.15380 36921 ft 491 kts 44°
2026-05-05 09:57 34.54094 -89.08416 36912 ft 490 kts 44°
2026-05-05 09:58 34.57719 -89.01404 36916 ft 491 kts 44°
2026-05-05 09:58 34.61342 -88.94371 36921 ft 491 kts 44°
2026-05-05 09:59 34.65178 -88.87646 36923 ft 473 kts 34°
2026-05-05 09:59 34.69402 -88.81592 36957 ft 472 kts 35°
2026-05-05 10:00 34.73649 -88.75514 36972 ft 471 kts 35°
2026-05-05 10:00 34.77864 -88.69467 36922 ft 467 kts 35°
2026-05-05 10:01 34.82069 -88.63430 36921 ft 468 kts 35°
2026-05-05 10:01 34.86243 -88.57418 36923 ft 468 kts 35°
2026-05-05 10:02 34.90444 -88.51348 36924 ft 468 kts 35°
2026-05-05 10:02 34.94642 -88.45271 36960 ft 468 kts 35°
2026-05-05 10:03 34.98830 -88.39206 36975 ft 467 kts 34°
2026-05-05 10:03 35.02958 -88.33205 36921 ft 463 kts 34°
2026-05-05 10:04 35.07108 -88.27184 36922 ft 464 kts 34°
2026-05-05 10:04 35.11254 -88.21146 36922 ft 464 kts 34°
2026-05-05 10:05 35.15397 -88.15101 36933 ft 464 kts 34°
2026-05-05 10:05 35.19513 -88.09088 36952 ft 464 kts 34°
2026-05-05 10:06 35.23649 -88.03037 36984 ft 463 kts 34°
2026-05-05 10:06 35.27741 -87.97013 36925 ft 459 kts 34°
2026-05-05 10:07 35.31823 -87.91005 36929 ft 459 kts 34°
2026-05-05 10:07 35.35917 -87.85016 36933 ft 459 kts 34°
2026-05-05 10:08 35.39978 -87.79040 36931 ft 459 kts 34°
2026-05-05 10:08 35.44055 -87.73005 36930 ft 460 kts 34°
2026-05-05 10:09 35.48132 -87.66964 37008 ft 459 kts 34°
2026-05-05 10:09 35.52199 -87.60936 36937 ft 457 kts 34°
2026-05-05 10:10 35.56230 -87.54957 36934 ft 458 kts 34°
2026-05-05 10:10 35.60293 -87.48924 36932 ft 459 kts 34°
2026-05-05 10:11 35.64354 -87.42873 36935 ft 459 kts 34°
2026-05-05 10:11 35.68408 -87.36810 36935 ft 459 kts 34°
2026-05-05 10:12 35.72445 -87.30789 36994 ft 459 kts 35°
2026-05-05 10:12 35.76504 -87.24719 36941 ft 459 kts 35°
2026-05-05 10:13 35.80553 -87.18641 36932 ft 459 kts 35°
2026-05-05 10:13 35.84604 -87.12540 36929 ft 460 kts 35°
2026-05-05 10:14 35.88659 -87.06440 36932 ft 460 kts 35°
2026-05-05 10:14 35.92687 -87.00370 36926 ft 460 kts 35°
2026-05-05 10:15 35.96736 -86.94244 36935 ft 461 kts 36°
2026-05-05 10:15 36.00782 -86.88113 36943 ft 460 kts 36°
2026-05-05 10:16 36.04821 -86.81992 36965 ft 459 kts 36°
2026-05-05 10:16 36.08818 -86.75904 36965 ft 459 kts 36°
2026-05-05 10:17 36.12795 -86.69707 36961 ft 468 kts 41°
2026-05-05 10:17 36.14448 -86.66148 36959 ft 487 kts 52°
2026-05-05 10:17 36.15754 -86.62229 36958 ft 494 kts 55°
2026-05-05 10:18 36.18299 -86.54328 36973 ft 494 kts 56°
2026-05-05 10:18 36.20828 -86.46487 36992 ft 493 kts 57°
2026-05-05 10:19 36.23376 -86.38612 36975 ft 492 kts 56°
2026-05-05 10:19 36.25917 -86.30735 36972 ft 493 kts 57°
2026-05-05 10:20 36.28446 -86.22837 36964 ft 493 kts 57°
2026-05-05 10:20 36.30961 -86.14991 36979 ft 493 kts 59°
2026-05-05 10:21 36.33480 -86.07098 36975 ft 492 kts 59°
2026-05-05 10:21 36.35987 -85.99203 36971 ft 492 kts 59°
2026-05-05 10:22 36.38490 -85.91318 36963 ft 491 kts 59°
2026-05-05 10:22 36.40992 -85.83427 36949 ft 491 kts 59°
2026-05-05 10:23 36.43469 -85.75584 36990 ft 491 kts 59°
2026-05-05 10:23 36.45958 -85.67689 36966 ft 491 kts 59°
2026-05-05 10:24 36.48445 -85.59785 36956 ft 491 kts 59°
2026-05-05 10:24 36.50922 -85.51876 36960 ft 491 kts 59°
2026-05-05 10:25 36.53376 -85.44016 36955 ft 491 kts 59°
2026-05-05 10:25 36.55839 -85.36096 36972 ft 491 kts 60°
2026-05-05 10:26 36.58293 -85.28191 36969 ft 490 kts 60°
2026-05-05 10:26 36.60744 -85.20289 36971 ft 489 kts 60°
2026-05-05 10:27 36.63179 -85.12384 36978 ft 489 kts 60°
2026-05-05 10:27 36.65604 -85.04532 37033 ft 489 kts 60°
2026-05-05 10:28 36.68026 -84.96652 36997 ft 485 kts 61°
2026-05-05 10:28 36.70436 -84.88797 37000 ft 486 kts 61°
2026-05-05 10:29 36.72840 -84.80933 37002 ft 486 kts 61°
2026-05-05 10:29 36.75220 -84.73115 37000 ft 485 kts 61°
2026-05-05 10:30 36.77614 -84.65242 37009 ft 485 kts 62°
2026-05-05 10:30 36.79995 -84.57370 37011 ft 484 kts 62°
2026-05-05 10:31 36.82364 -84.49518 36988 ft 483 kts 62°
2026-05-05 10:31 36.84715 -84.41732 36985 ft 482 kts 62°
2026-05-05 10:32 36.87073 -84.33894 37033 ft 482 kts 62°
2026-05-05 10:32 36.89424 -84.26050 37032 ft 482 kts 63°
2026-05-05 10:33 36.91765 -84.18214 37022 ft 481 kts 63°
2026-05-05 10:33 36.94097 -84.10385 37007 ft 480 kts 63°
2026-05-05 10:34 36.96403 -84.02614 36999 ft 480 kts 63°
2026-05-05 10:34 36.98721 -83.94788 36996 ft 480 kts 63°
2026-05-05 10:35 37.01038 -83.86964 37002 ft 479 kts 64°
2026-05-05 10:35 37.03338 -83.79144 36997 ft 478 kts 64°
2026-05-05 10:36 37.05615 -83.71390 36991 ft 478 kts 64°
2026-05-05 10:36 37.07900 -83.63578 37000 ft 477 kts 64°
2026-05-05 10:37 37.10180 -83.55774 36986 ft 477 kts 64°
2026-05-05 10:37 37.12452 -83.47960 36994 ft 477 kts 65°
2026-05-05 10:38 37.14699 -83.40207 36993 ft 476 kts 65°
2026-05-05 10:38 37.16962 -83.32406 36981 ft 476 kts 65°
2026-05-05 10:39 37.19214 -83.24610 36977 ft 476 kts 65°
2026-05-05 10:39 37.20340 -83.20704 35943 ft 480 kts 65°
2026-05-05 10:39 37.21510 -83.16678 35613 ft 463 kts 65°
2026-05-05 10:40 37.22549 -83.13011 37125 ft 437 kts 65°
2026-05-05 10:40 37.23556 -83.09459 37267 ft 440 kts 65°
2026-05-05 10:40 37.25654 -83.02140 37271 ft 452 kts 65°
2026-05-05 10:41 37.27825 -82.94621 37277 ft 465 kts 65°
2026-05-05 10:41 37.30030 -82.86898 37275 ft 473 kts 65°
2026-05-05 10:42 37.33315 -82.75244 37074 ft 473 kts 66°
2026-05-05 10:42 37.34412 -82.71355 36952 ft 472 kts 66°
2026-05-05 10:43 37.35513 -82.67459 36989 ft 474 kts 66°
2026-05-05 10:43 37.37725 -82.59642 36991 ft 475 kts 66°
2026-05-05 10:44 37.39929 -82.51809 36991 ft 475 kts 66°
2026-05-05 10:44 37.42109 -82.44026 36972 ft 475 kts 66°
2026-05-05 10:45 37.44296 -82.36193 36965 ft 474 kts 65°
2026-05-05 10:45 37.46470 -82.28370 36990 ft 474 kts 65°
2026-05-05 10:46 37.48641 -82.20551 36980 ft 473 kts 65°
2026-05-05 10:46 37.50780 -82.12782 36979 ft 472 kts 65°
2026-05-05 10:47 37.52938 -82.04976 36976 ft 472 kts 65°
2026-05-05 10:47 37.55093 -81.97169 36958 ft 472 kts 65°
2026-05-05 10:48 37.57240 -81.89352 36972 ft 472 kts 65°
2026-05-05 10:48 37.59381 -81.81530 36973 ft 472 kts 65°
2026-05-05 10:49 37.61498 -81.73757 36974 ft 472 kts 65°
2026-05-05 10:49 37.63631 -81.65930 36967 ft 472 kts 65°
2026-05-05 10:50 37.65757 -81.58093 36990 ft 473 kts 66°
2026-05-05 10:50 37.67878 -81.50235 36991 ft 473 kts 66°
2026-05-05 10:51 37.69984 -81.42419 36993 ft 473 kts 66°
2026-05-05 10:51 37.72101 -81.34551 37009 ft 474 kts 66°
2026-05-05 10:52 37.74210 -81.26661 37036 ft 474 kts 66°
2026-05-05 10:52 37.76318 -81.18760 37032 ft 475 kts 67°
2026-05-05 10:53 37.78093 -81.10767 37023 ft 481 kts 78°
2026-05-05 10:53 37.78699 -81.02317 37025 ft 483 kts 82°
2026-05-05 10:54 37.79267 -80.93857 37015 ft 483 kts 82°
2026-05-05 10:54 37.79841 -80.85392 37017 ft 483 kts 82°
2026-05-05 10:55 37.80397 -80.76977 37007 ft 483 kts 82°
2026-05-05 10:55 37.80939 -80.68507 37000 ft 483 kts 82°
2026-05-05 10:56 37.81475 -80.60038 37040 ft 483 kts 82°
2026-05-05 10:56 37.82015 -80.51566 37070 ft 483 kts 83°
2026-05-05 10:57 37.82545 -80.43154 37067 ft 483 kts 83°
2026-05-05 10:57 37.83080 -80.34687 37065 ft 483 kts 83°
2026-05-05 10:58 37.83600 -80.26225 37060 ft 483 kts 83°
2026-05-05 10:58 37.84109 -80.17758 37049 ft 483 kts 83°
2026-05-05 10:59 37.84606 -80.09361 37059 ft 481 kts 84°
2026-05-05 10:59 37.85099 -80.00922 37072 ft 480 kts 84°
2026-05-05 11:00 37.85586 -79.92499 37074 ft 480 kts 84°
2026-05-05 11:00 37.86077 -79.84086 37082 ft 479 kts 84°
2026-05-05 11:01 37.86555 -79.75734 37090 ft 479 kts 84°
2026-05-05 11:01 37.86963 -79.67319 36988 ft 479 kts 86°
2026-05-05 11:02 37.87231 -79.58896 36964 ft 479 kts 86°
2026-05-05 11:02 37.87467 -79.50464 36964 ft 479 kts 86°
2026-05-05 11:03 37.87731 -79.42036 36959 ft 479 kts 86°
2026-05-05 11:03 37.88018 -79.33666 36963 ft 479 kts 84°
2026-05-05 11:04 37.88946 -79.25333 36973 ft 478 kts 80°
2026-05-05 11:04 37.89924 -79.17008 36985 ft 478 kts 80°
2026-05-05 11:05 37.90892 -79.08676 36989 ft 478 kts 80°
2026-05-05 11:05 37.91850 -79.00398 36994 ft 480 kts 81°
2026-05-05 11:06 37.92812 -78.92016 37009 ft 480 kts 81°
2026-05-05 11:06 37.93771 -78.83651 37012 ft 479 kts 81°
2026-05-05 11:07 37.94724 -78.75298 37005 ft 479 kts 81°
2026-05-05 11:07 37.95657 -78.67007 36988 ft 478 kts 81°
2026-05-05 11:08 37.96594 -78.58663 36992 ft 478 kts 81°
2026-05-05 11:08 37.97524 -78.50326 37008 ft 478 kts 81°
2026-05-05 11:09 37.98450 -78.41984 37009 ft 478 kts 81°
2026-05-05 11:09 37.99358 -78.33699 37008 ft 478 kts 81°
2026-05-05 11:10 38.00266 -78.25352 37004 ft 478 kts 81°
2026-05-05 11:10 38.01443 -78.17087 37005 ft 476 kts 71°
2026-05-05 11:11 38.04244 -78.09570 37015 ft 470 kts 54°
2026-05-05 11:11 38.07745 -78.02623 37029 ft 471 kts 55°
2026-05-05 11:12 38.11249 -77.95606 37017 ft 470 kts 55°
2026-05-05 11:12 38.14742 -77.88576 37012 ft 471 kts 56°
2026-05-05 11:13 38.18231 -77.81537 36994 ft 471 kts 55°
2026-05-05 11:13 38.21701 -77.74553 36989 ft 470 kts 55°
2026-05-05 11:14 38.25193 -77.67515 37012 ft 470 kts 55°
2026-05-05 11:14 38.28678 -77.60471 37008 ft 470 kts 56°
2026-05-05 11:15 38.32150 -77.53432 37001 ft 469 kts 56°
2026-05-05 11:15 38.35591 -77.46437 37010 ft 469 kts 56°
2026-05-05 11:16 38.39051 -77.39395 37007 ft 469 kts 56°
2026-05-05 11:16 38.42970 -77.32827 37005 ft 465 kts 46°
2026-05-05 11:17 38.47271 -77.26664 37018 ft 465 kts 46°
2026-05-05 11:17 38.51556 -77.20494 37005 ft 464 kts 46°
2026-05-05 11:18 38.55805 -77.14350 37003 ft 465 kts 46°
2026-05-05 11:18 38.60074 -77.08147 36999 ft 465 kts 46°
2026-05-05 11:19 38.64345 -77.01945 37015 ft 465 kts 46°
2026-05-05 11:19 38.68616 -76.95746 36991 ft 464 kts 46°
2026-05-05 11:20 38.72850 -76.89580 36989 ft 464 kts 46°
2026-05-05 11:20 38.77109 -76.83369 36981 ft 464 kts 46°
2026-05-05 11:21 38.81368 -76.77148 36977 ft 464 kts 46°
2026-05-05 11:21 38.85624 -76.70916 36986 ft 464 kts 46°
2026-05-05 11:22 38.89844 -76.64714 36982 ft 465 kts 46°
2026-05-05 11:22 38.94096 -76.58461 36984 ft 464 kts 46°
2026-05-05 11:23 38.98340 -76.52206 36981 ft 465 kts 46°
2026-05-05 11:23 39.02581 -76.45938 36983 ft 464 kts 47°
2026-05-05 11:24 39.06823 -76.39675 36976 ft 464 kts 47°
2026-05-05 11:24 39.11032 -76.33439 36982 ft 464 kts 47°
2026-05-05 11:25 39.15259 -76.27154 36982 ft 464 kts 47°
2026-05-05 11:25 39.19484 -76.20869 36980 ft 464 kts 47°
2026-05-05 11:26 39.23706 -76.14575 36987 ft 464 kts 47°
2026-05-05 11:26 39.27890 -76.08317 36978 ft 464 kts 47°
2026-05-05 11:27 39.32105 -76.02017 36972 ft 463 kts 47°
2026-05-05 11:27 39.36314 -75.95709 36967 ft 463 kts 47°
2026-05-05 11:28 39.40510 -75.89388 36980 ft 463 kts 47°
2026-05-05 11:28 39.44702 -75.83060 36975 ft 463 kts 47°
2026-05-05 11:29 39.48868 -75.76782 36964 ft 463 kts 47°
2026-05-05 11:29 39.53057 -75.70458 36964 ft 463 kts 47°
2026-05-05 11:30 39.57243 -75.64124 36963 ft 463 kts 48°
2026-05-05 11:30 39.61418 -75.57780 36971 ft 463 kts 48°
2026-05-05 11:31 39.65586 -75.51420 36971 ft 463 kts 49°
2026-05-05 11:31 39.69510 -75.44869 36967 ft 463 kts 52°
2026-05-05 11:32 39.73235 -75.38036 36952 ft 463 kts 54°
2026-05-05 11:32 39.76955 -75.31200 36954 ft 463 kts 53°
2026-05-05 11:33 39.80742 -75.24427 36953 ft 463 kts 52°
2026-05-05 11:33 39.84523 -75.17711 36953 ft 463 kts 52°
2026-05-05 11:34 39.88315 -75.10935 36957 ft 463 kts 53°
2026-05-05 11:34 39.92090 -75.04138 36941 ft 463 kts 53°
2026-05-05 11:35 39.95862 -74.97333 36967 ft 463 kts 53°
2026-05-05 11:35 39.99546 -74.90507 36967 ft 463 kts 55°
2026-05-05 11:36 40.03091 -74.83484 36965 ft 463 kts 56°
2026-05-05 11:36 40.06600 -74.76428 36961 ft 463 kts 56°
2026-05-05 11:37 40.10148 -74.69403 36948 ft 463 kts 55°
2026-05-05 11:37 40.13719 -74.62399 36957 ft 463 kts 55°
2026-05-05 11:38 40.17258 -74.55431 36954 ft 463 kts 55°
2026-05-05 11:38 40.21139 -74.48750 36952 ft 461 kts 43°
2026-05-05 11:39 40.26016 -74.43359 36953 ft 459 kts 37°
2026-05-05 11:39 40.30965 -74.38074 36970 ft 459 kts 37°
2026-05-05 11:40 40.35909 -74.32770 36961 ft 459 kts 38°
2026-05-05 11:40 40.40813 -74.27505 36951 ft 459 kts 37°
2026-05-05 11:41 40.45753 -74.22198 36950 ft 459 kts 38°
2026-05-05 11:41 40.50685 -74.16885 36965 ft 459 kts 38°
2026-05-05 11:42 40.54832 -74.10590 36956 ft 462 kts 58°
2026-05-05 11:42 40.57314 -74.02822 36965 ft 463 kts 72°
2026-05-05 11:43 40.59202 -73.94719 36958 ft 463 kts 72°
2026-05-05 11:43 40.61090 -73.86609 36952 ft 463 kts 72°
2026-05-05 11:44 40.63269 -73.78646 36964 ft 462 kts 61°
2026-05-05 11:44 40.66917 -73.71815 36954 ft 459 kts 46°
2026-05-05 11:45 40.71211 -73.65584 36954 ft 460 kts 46°
2026-05-05 11:45 40.75495 -73.59326 36948 ft 460 kts 46°
2026-05-05 11:46 40.79769 -73.53041 36953 ft 460 kts 46°
2026-05-05 11:46 40.84012 -73.46778 36691 ft 462 kts 46°
2026-05-05 11:46 40.86139 -73.43634 36408 ft 456 kts 46°
2026-05-05 11:47 40.88245 -73.40522 36056 ft 452 kts 46°
2026-05-05 11:47 40.90331 -73.37439 35661 ft 449 kts 46°
2026-05-05 11:47 40.92405 -73.34377 35252 ft 446 kts 47°
2026-05-05 11:47 40.94467 -73.31331 34839 ft 443 kts 47°
2026-05-05 11:48 40.98545 -73.25302 34028 ft 437 kts 47°
2026-05-05 11:48 41.00538 -73.22351 33562 ft 434 kts 47°
2026-05-05 11:48 41.02542 -73.19379 33110 ft 431 kts 48°
2026-05-05 11:49 41.04526 -73.16425 32669 ft 428 kts 48°
2026-05-05 11:49 41.06495 -73.13490 32239 ft 424 kts 48°
2026-05-05 11:49 41.08448 -73.10578 31807 ft 421 kts 48°
2026-05-05 11:49 41.10385 -73.07691 31403 ft 418 kts 49°
2026-05-05 11:50 41.12308 -73.04819 31000 ft 415 kts 49°
2026-05-05 11:50 41.14216 -73.01973 30615 ft 412 kts 48°
2026-05-05 11:50 41.16114 -72.99141 30209 ft 410 kts 49°
2026-05-05 11:50 41.17995 -72.96317 29787 ft 407 kts 49°
2026-05-05 11:51 41.19837 -72.93548 29347 ft 404 kts 49°
2026-05-05 11:51 41.21505 -72.90573 28917 ft 400 kts 62°
2026-05-05 11:51 41.22787 -72.87300 28504 ft 398 kts 64°
2026-05-05 11:51 41.24045 -72.84033 28086 ft 396 kts 64°
2026-05-05 11:52 41.25290 -72.80777 27667 ft 395 kts 64°
2026-05-05 11:52 41.26527 -72.77531 27254 ft 393 kts 64°
2026-05-05 11:52 41.27756 -72.74295 26830 ft 391 kts 64°
2026-05-05 11:52 41.28976 -72.71078 26407 ft 389 kts 64°
2026-05-05 11:53 41.30195 -72.67870 25994 ft 388 kts 64°
2026-05-05 11:53 41.31397 -72.64717 25570 ft 387 kts 64°
2026-05-05 11:53 41.32613 -72.61530 25148 ft 386 kts 64°
2026-05-05 11:53 41.33822 -72.58351 24720 ft 384 kts 64°
2026-05-05 11:54 41.35023 -72.55185 24310 ft 382 kts 64°
2026-05-05 11:54 41.36220 -72.52028 23907 ft 381 kts 64°
2026-05-05 11:54 41.37407 -72.48888 23498 ft 380 kts 64°
2026-05-05 11:54 41.38591 -72.45752 23027 ft 378 kts 64°
2026-05-05 11:55 41.39770 -72.42632 22572 ft 376 kts 64°
2026-05-05 11:55 41.40946 -72.39528 22133 ft 374 kts 64°
2026-05-05 11:55 41.42098 -72.36481 21704 ft 373 kts 64°
2026-05-05 11:55 41.43259 -72.33405 21270 ft 371 kts 64°
2026-05-05 11:56 41.44415 -72.30342 20845 ft 369 kts 64°
2026-05-05 11:56 41.45562 -72.27291 20425 ft 367 kts 65°
2026-05-05 11:56 41.46700 -72.24250 20006 ft 366 kts 65°
2026-05-05 11:56 41.47833 -72.21222 19608 ft 364 kts 65°
2026-05-05 11:57 41.48957 -72.18203 19211 ft 362 kts 65°
2026-05-05 11:57 41.50062 -72.15195 18826 ft 361 kts 66°
2026-05-05 11:57 41.51158 -72.12189 18434 ft 360 kts 66°
2026-05-05 11:57 41.52257 -72.09173 17839 ft 361 kts 66°
2026-05-05 11:58 41.53354 -72.06158 17245 ft 360 kts 65°
2026-05-05 11:58 41.54441 -72.03163 16601 ft 357 kts 65°
2026-05-05 11:58 41.55520 -72.00194 15950 ft 354 kts 65°
2026-05-05 11:58 41.56529 -71.97211 15317 ft 351 kts 68°
2026-05-05 11:59 41.57439 -71.94248 14711 ft 348 kts 69°
2026-05-05 11:59 41.58313 -71.91245 14099 ft 346 kts 69°
2026-05-05 11:59 41.59203 -71.88147 13147 ft 360 kts 69°
2026-05-05 11:59 41.60108 -71.85009 12091 ft 375 kts 69°
2026-05-05 12:00 41.61068 -71.81700 10962 ft 389 kts 69°
2026-05-05 12:00 41.62066 -71.78282 10006 ft 397 kts 68°
2026-05-05 12:00 41.63050 -71.74948 10020 ft 374 kts 68°
2026-05-05 12:00 41.63982 -71.71800 10031 ft 353 kts 68°
2026-05-05 12:01 41.64863 -71.68820 10037 ft 336 kts 68°
2026-05-05 12:01 41.65703 -71.65971 10039 ft 326 kts 68°
2026-05-05 12:01 41.66528 -71.63161 10039 ft 324 kts 68°
2026-05-05 12:01 41.67348 -71.60360 10042 ft 323 kts 68°
2026-05-05 12:02 41.68167 -71.57562 10044 ft 323 kts 68°
2026-05-05 12:02 41.68987 -71.54761 10038 ft 323 kts 68°
2026-05-05 12:02 41.69807 -71.51959 10044 ft 324 kts 68°
2026-05-05 12:02 41.70628 -71.49155 10046 ft 323 kts 68°
2026-05-05 12:03 41.71446 -71.46352 10053 ft 324 kts 68°
2026-05-05 12:03 41.72269 -71.43596 10045 ft 323 kts 65°
2026-05-05 12:03 41.73325 -71.40940 10045 ft 323 kts 58°
2026-05-05 12:03 41.74449 -71.38341 10045 ft 323 kts 58°
2026-05-05 12:04 41.75567 -71.35732 10046 ft 323 kts 59°
2026-05-05 12:04 41.76681 -71.33115 10044 ft 323 kts 58°
2026-05-05 12:04 41.77795 -71.30505 10044 ft 323 kts 59°
2026-05-05 12:04 41.78908 -71.27889 10043 ft 323 kts 59°
2026-05-05 12:05 41.80005 -71.25307 10039 ft 323 kts 59°
2026-05-05 12:05 41.81117 -71.22691 10038 ft 323 kts 59°
2026-05-05 12:05 41.82230 -71.20076 10040 ft 323 kts 59°
2026-05-05 12:05 41.83344 -71.17457 10042 ft 323 kts 59°
2026-05-05 12:06 41.84458 -71.14839 10044 ft 323 kts 59°
2026-05-05 12:06 41.85570 -71.12224 10056 ft 323 kts 59°
2026-05-05 12:06 41.86692 -71.09605 10047 ft 324 kts 59°
2026-05-05 12:06 41.87825 -71.06987 10045 ft 324 kts 58°
2026-05-05 12:07 41.88959 -71.04377 10044 ft 324 kts 59°
2026-05-05 12:07 41.90078 -71.01792 10047 ft 324 kts 59°
2026-05-05 12:07 41.91209 -70.99175 10044 ft 324 kts 59°
2026-05-05 12:07 41.92336 -70.96558 10043 ft 324 kts 59°
2026-05-05 12:08 41.93463 -70.93937 10050 ft 324 kts 59°
2026-05-05 12:08 41.94589 -70.91314 10045 ft 324 kts 59°
2026-05-05 12:08 41.95713 -70.88692 10043 ft 324 kts 59°
2026-05-05 12:08 41.96839 -70.86072 10037 ft 324 kts 59°
2026-05-05 12:09 41.97963 -70.83451 10042 ft 324 kts 59°
2026-05-05 12:09 41.99089 -70.80832 10044 ft 324 kts 59°
2026-05-05 12:09 42.00199 -70.78245 10059 ft 324 kts 58°
2026-05-05 12:09 42.01431 -70.75712 9888 ft 324 kts 48°
2026-05-05 12:10 42.02920 -70.73469 9613 ft 321 kts 45°
2026-05-05 12:10 42.04415 -70.71246 9315 ft 320 kts 45°
2026-05-05 12:10 42.05899 -70.69028 9013 ft 318 kts 45°
2026-05-05 12:10 42.07374 -70.66817 8716 ft 317 kts 46°
2026-05-05 12:11 42.08847 -70.64608 8411 ft 316 kts 45°
2026-05-05 12:11 42.10448 -70.62682 8117 ft 311 kts 31°
2026-05-05 12:11 42.12336 -70.61343 7825 ft 304 kts 15°
2026-05-05 12:11 42.14361 -70.60638 7542 ft 299 kts
2026-05-05 12:12 42.16402 -70.60090 7275 ft 299 kts
2026-05-05 12:12 42.18438 -70.59528 6976 ft 298 kts
2026-05-05 12:12 42.20467 -70.58958 6681 ft 297 kts
2026-05-05 12:12 42.21808 -70.58578 6495 ft 297 kts
2026-05-05 12:13 42.24509 -70.57812 6092 ft 296 kts
2026-05-05 12:13 42.26523 -70.57244 5815 ft 295 kts
2026-05-05 12:13 42.28504 -70.56689 5539 ft 295 kts
2026-05-05 12:13 42.30514 -70.56330 5260 ft 287 kts 353°
2026-05-05 12:14 42.32445 -70.56736 5025 ft 277 kts 335°
2026-05-05 12:14 42.34150 -70.57830 5004 ft 268 kts 319°
2026-05-05 12:14 42.35551 -70.59441 5008 ft 263 kts 309°
2026-05-05 12:14 42.36421 -70.60588 5018 ft 264 kts 309°
2026-05-05 12:15 42.37740 -70.62319 5006 ft 264 kts 309°
2026-05-05 12:15 42.39489 -70.64604 5003 ft 264 kts 309°
2026-05-05 12:15 42.40808 -70.66331 5000 ft 264 kts 309°
2026-05-05 12:15 42.42125 -70.68060 4997 ft 264 kts 309°
2026-05-05 12:16 42.43444 -70.69794 4997 ft 264 kts 309°
2026-05-05 12:16 42.44759 -70.71525 4995 ft 263 kts 309°
2026-05-05 12:16 42.46074 -70.73260 4998 ft 265 kts 309°
2026-05-05 12:16 42.46947 -70.74417 4996 ft 265 kts 309°
2026-05-05 12:17 42.48266 -70.76160 4996 ft 265 kts 309°
2026-05-05 12:17 42.49586 -70.77899 4996 ft 264 kts 309°
2026-05-05 12:17 42.51288 -70.80094 4993 ft 248 kts 314°
2026-05-05 12:17 42.52816 -70.81145 4997 ft 250 kts 340°
2026-05-05 12:18 42.54579 -70.81142 4997 ft 262 kts 10°
2026-05-05 12:18 42.55733 -70.80624 5003 ft 264 kts 16°
2026-05-05 12:18 42.58036 -70.79486 5000 ft 263 kts 16°
2026-05-05 12:18 42.59759 -70.78628 5002 ft 264 kts 16°
2026-05-05 12:19 42.61485 -70.77769 4997 ft 264 kts 16°
2026-05-05 12:19 42.62609 -70.77240 4970 ft 252 kts 11°
2026-05-05 12:19 42.64223 -70.77306 4869 ft 219 kts 328°
2026-05-05 12:19 42.65370 -70.79093 4756 ft 181 kts 277°
2026-05-05 12:20 42.65425 -70.80208 4695 ft 172 kts 257°
2026-05-05 12:20 42.64711 -70.81987 4625 ft 155 kts 225°
2026-05-05 12:20 42.63949 -70.82937 4514 ft 143 kts 224°
2026-05-05 12:20 42.63481 -70.83526 4462 ft 134 kts 225°
2026-05-05 12:21 42.62807 -70.84381 4406 ft 132 kts 225°
2026-05-05 12:21 42.62144 -70.85222 4341 ft 130 kts 225°
2026-05-05 12:21 42.61479 -70.86066 4286 ft 130 kts 225°
2026-05-05 12:21 42.60605 -70.87176 4199 ft 130 kts 225°
2026-05-05 12:22 42.59946 -70.88018 4127 ft 130 kts 225°
2026-05-05 12:22 42.59498 -70.88588 4093 ft 130 kts 226°
2026-05-05 12:22 42.58545 -70.89567 4005 ft 133 kts 210°
2026-05-05 12:22 42.57711 -70.90078 3789 ft 131 kts 209°
2026-05-05 12:23 42.57160 -70.90389 3581 ft 128 kts 208°
2026-05-05 12:23 42.56336 -70.90827 3381 ft 127 kts 208°
2026-05-05 12:23 42.55509 -70.91250 3252 ft 127 kts 207°
2026-05-05 12:23 42.54415 -70.91795 3136 ft 127 kts 206°
2026-05-05 12:24 42.53584 -70.92204 3078 ft 127 kts 206°
2026-05-05 12:24 42.53024 -70.92479 3040 ft 127 kts 206°
2026-05-05 12:24 42.52207 -70.92878 2997 ft 127 kts 206°
2026-05-05 12:24 42.51379 -70.93282 2883 ft 126 kts 207°
2026-05-05 12:25 42.50553 -70.93684 2749 ft 127 kts 206°
2026-05-05 12:25 42.49726 -70.94087 2592 ft 126 kts 206°
2026-05-05 12:25 42.48905 -70.94486 2436 ft 125 kts 206°
2026-05-05 12:25 42.47824 -70.95012 2220 ft 124 kts 206°
2026-05-05 12:26 42.47010 -70.95407 2065 ft 124 kts 206°
2026-05-05 12:26 42.46199 -70.95802 1891 ft 124 kts 207°
2026-05-05 12:26 42.45663 -70.96060 1796 ft 123 kts 208°
2026-05-05 12:26 42.44857 -70.96445 1636 ft 122 kts 208°
2026-05-05 12:27 42.44062 -70.96852 1403 ft 123 kts 207°
2026-05-05 12:27 42.43260 -70.97273 1273 ft 122 kts 206°
2026-05-05 12:27 42.42457 -70.97665 1067 ft 123 kts 204°
2026-05-05 12:27 42.41662 -70.98079 909 ft 123 kts 203°
2026-05-05 12:28 42.40855 -70.98441 767 ft 122 kts 199°
2026-05-05 12:28 42.40041 -70.98815 582 ft 125 kts 200°
2026-05-05 12:28 42.39245 -70.99178 426 ft 121 kts 198°
2026-05-05 12:28 42.38441 -70.99575 266 ft 124 kts 199°
2026-05-05 12:29 42.37639 -70.99960 116 ft 121 kts 199°
2026-05-05 12:29 42.36867 -71.00351 31 ft 109 kts 196°
2026-05-05 12:29 42.36273 -71.00620 25 ft 71 kts 200°
2026-05-05 12:29 42.36012 -71.00777 27 ft 24 kts 221°
2026-05-05 12:30 42.35920 -71.00912 26 ft 9 kts 229°
2026-05-05 12:30 42.35870 -71.00989 27 ft 9 kts 229°
2026-05-05 12:30 42.35834 -71.01080 26 ft 13 kts 262°
2026-05-05 12:30 42.35843 -71.01218 26 ft 16 kts 279°
2026-05-05 12:31 42.35861 -71.01384 30 ft 19 kts 279°
2026-05-05 12:31 42.35896 -71.01526 26 ft 13 kts 326°
2026-05-05 12:31 42.35989 -71.01501 27 ft 15 kts 22°
2026-05-05 12:31 42.36098 -71.01448 25 ft 18 kts 19°
2026-05-05 12:32 42.36178 -71.01448 25 ft 12 kts 308°
2026-05-05 12:32 42.36213 -71.01517 27 ft 9 kts 307°
2026-05-05 12:32 42.36233 -71.01576 27 ft 3 kts 287°
2026-05-05 12:32 42.36239 -71.01614 29 ft 5 kts 275°
2026-05-05 12:33 42.36226 -71.01644 28 ft 4 kts 229°
2026-05-05 12:33 42.36214 -71.01661 28 ft 1 kts 228°
2026-05-05 12:33 42.36208 -71.01672 25 ft 1 kts 233°
2026-05-05 12:33 42.36206 -71.01676 25 ft 0 kts 232°